Hourly Data Report for December 17, 2012

BAGOTVILLE A
QUEBEC

48°20'00.000" N
71°00'00.000" W
159.10 m
7060400
71727
YBG

Download Data

Hourly Data (December 2012)
Hourly Data Report for December 17, 2012
TIME
LST
Temp Definition
°C
Dew Point Definition
°C
Rel Hum Definition
%
Precip. Amount Definition
mm

Wind Dir Definition
10's deg

Wind Spd Definition
km/h
Visibility Definition
km
Stn Press Definition
kPa
Hmdx Definition


Wind Chill Definition


Weather Definition


00:00 -10.8 -13.4 81   11 32 24.1 100.29   -21 Mainly Clear
01:00 -10.7 -13.3 81   10 30 24.1 100.29   -20 Mainly Clear
02:00 -10.0 -12.4 83   11 35 24.1 100.25   -20 Mostly Cloudy
03:00 -9.3 -11.6 83   11 32 24.1 100.21   -19 Cloudy
04:00 -8.9 -11.5 81   11 35 24.1 100.18   -19 Cloudy
05:00 -8.8 -11.4 81   10 32 24.1 100.13   -18 Cloudy
06:00 -8.4 -11.7 77   10 33 24.1 100.12   -18 Cloudy
07:00 -8.3 -11.6 77   11 39 24.1 100.09   -18 Cloudy
08:00 -8.2 -11.1 80   10 32 40.2 100.11   -17 Cloudy
09:00 -8.0 -11.2 78   11 33 19.3 100.10   -17 Snow
10:00 -7.6 -11.5 74   10 30 40.2 100.10   -16 Cloudy
11:00 -7.2 -10.2 79   10 35 40.2 100.00   -16 Cloudy
12:00 -6.8 -10.5 75   10 32 40.2 99.96   -16 Cloudy
13:00 -6.4 -10.0 76   10 37 40.2 99.90   -16 Cloudy
14:00 -5.8 -9.2 77   10 35 4.0 99.86   -15 Snow
15:00 -5.5 -7.8 84   11 28 9.7 99.88   -13 Snow
16:00 -5.0 -7.2 85   11 26 1.6 99.84   -12 Snow
17:00 -5.0 -6.9 86   11 26 1.2 99.82   -12 Snow
18:00 -5.0 -6.2 91   11 26 2.4 99.77   -12 Snow
19:00 -4.4 -5.6 91   11 24 4.8 99.74   -11 Snow
20:00 -3.8 -5.5 88   10 24 3.2 99.73   -11 Snow
21:00 -3.5 -4.8 91   10 24 2.4 99.69   -10 Snow
22:00 -2.9 -4.1 91   10 26 2.4 99.65   -10 Snow
23:00 -2.5 -3.6 92   11 24 2.4 99.62   -9 Snow

Notes on Data Quality.

Legend

  • E = Estimated
  • M = Missing
  • NA = Not Available*
  • [empty] = Indicates an unobserved value
Date modified: